Flag for Norway Weather past 2 weeks in Larvik, Norway

Now
39 °F

Sunny.


Feels Like: 32 °F
Forecast: 35 / 50 °F
Wind: 13 mph from Southwest

Location: Torp

Current Time: Apr 26, 2015 at 8:25:12 AM

Latest Report: Apr 26, 2015 at 7:50 AM


Visibility: 10 mi

Pressure: 29.53 "Hg

Humidity: 75%

Dew point: 32 °F

Location of LarvikLocation

Historic Weather in Larvik — Graph

°F

Larvik temperature yesterday

Maximum temperature yesterday: 46 °F (at 2:20 PM)
Minimum temperature yesterday: 43 °F (at 12:50 AM)
Average temperature yesterday: 45 °F

Past Weeks' High & Low Weather Summary

 TemperatureHumidityPressure
High68 °F (Apr 20, 5:50 PM)100% (Apr 11, 6:20 AM)30.36 "Hg (Apr 11, 6:20 AM)
Low32 °F (Apr 13, 6:20 AM)16% (Apr 20, 6:20 PM)29.39 "Hg (Apr 25, 6:50 PM)
Average47 °F57%29.91 "Hg
* Reported Apr 11 6:20 AM — Apr 26 6:50 AM, Larvik, Weather by CustomWeather, © 2015

Note: Actual official high and low records may vary slightly from our data, if they occured in-between our weather recording intervals... More about our weather records

Advertising

Larvik weather history for previous 24 hours

 ConditionsComfort  
Time TempWeatherWind HumidityBarometerVisibility
6:50 AM
Sun, Apr 26
37 °FSunny.10 mph81%29.50 "Hg10 mi
6:20 AM36 °FClear.10 mph87%29.50 "Hg10 mi
5:50 AM36 °FClear.12 mph87%29.50 "Hg10 mi
5:20 AM36 °FChilly.12 mph87%29.50 "HgN/A
4:50 AM36 °FChilly.12 mph87%29.50 "HgN/A
4:20 AM36 °FChilly.10 mph81%29.47 "HgN/A
3:50 AM37 °FChilly.12 mph75%29.47 "HgN/A
3:20 AM37 °FChilly.12 mph75%29.47 "HgN/A
2:50 AM37 °FChilly.8 mph75%29.47 "HgN/A
2:20 AM39 °FChilly.8 mph70%29.47 "HgN/A
1:50 AM41 °FQuite cool.10 mph76%29.45 "HgN/A
1:20 AM43 °FQuite cool.9 mph76%29.45 "HgN/A
12:50 AM43 °FPassing clouds.13 mph93%29.42 "HgN/A
12:20 AM45 °FPassing clouds.15 mph87%29.42 "HgN/A
11:50 PM
Sat, Apr 25
45 °FMostly cloudy.16 mph93%29.39 "HgN/A
10:50 PM46 °FLow clouds.21 mph93%29.39 "Hg4 mi
10:20 PM46 °FFog.23 mph93%29.39 "Hg2 mi
9:50 PM46 °FLight rain. Fog.24 mph93%29.39 "Hg1 mi
9:20 PM46 °FLight rain. Fog.22 mph93%29.39 "Hg1 mi
8:50 PM46 °FLight rain. Fog.21 mph93%29.39 "Hg2 mi
8:20 PM46 °FLight rain. Fog.21 mph100%29.39 "Hg2 mi
7:50 PM46 °FLight rain. Fog.23 mph100%29.39 "Hg1 mi
6:50 PM46 °FLight rain. Fog.22 mph100%29.39 "Hg1 mi
6:20 PM46 °FFog.18 mph100%29.42 "Hg1 mi
5:50 PM46 °FFog.17 mph100%29.42 "Hg1 mi
5:20 PM46 °FFog.18 mph100%29.42 "Hg2 mi
4:50 PM46 °FFog.17 mph100%29.42 "Hg2 mi
4:20 PM46 °FLight rain. Fog.17 mph100%29.45 "Hg1 mi
3:50 PM46 °FLight rain. Fog.17 mph100%29.45 "Hg1 mi
3:20 PM46 °FFog.15 mph100%29.45 "Hg1 mi
2:50 PM46 °FDense fog.15 mph100%29.45 "Hg1 mi
2:20 PM46 °FFog.14 mph93%29.45 "Hg1 mi
1:50 PM45 °FFog.16 mph100%29.47 "Hg1 mi
1:20 PM45 °FFog.15 mph100%29.47 "Hg1 mi
12:50 PM45 °FFog.15 mph100%29.47 "Hg1 mi
12:20 PM43 °FFog.15 mph100%29.47 "Hg1 mi
11:50 AM43 °FDrizzle. Fog.18 mph100%29.47 "Hg1 mi
11:20 AM45 °FDrizzle. Fog.17 mph93%29.47 "Hg2 mi
10:50 AM45 °FDrizzle. Fog.15 mph93%29.50 "Hg2 mi
10:20 AM45 °FLight rain. Fog.20 mph93%29.50 "Hg3 mi
9:50 AM45 °FDrizzle. Fog.16 mph93%29.50 "Hg3 mi
9:20 AM45 °FLight rain. Low clouds.13 mph93%29.50 "Hg5 mi
8:50 AM45 °FPartly sunny.13 mph93%29.50 "Hg4 mi
8:20 AM45 °FPartly sunny.10 mph93%29.50 "Hg6 mi
Weather by CustomWeather, © 2015

See weather overviewHow to use our weather pages